Weather History for Mount Pleasant, MI

Change the Weather History Date:

Tuesday, November 26, 2013

  Actual Average (KAMN) Record (KAMN)
Temperature  
Mean Temperature 28 °F -  
Max Temperature 32 °F 40 °F 61 °F (1960)
Min Temperature 24 °F 26 °F -1 °F (1949)
Degree Days  
Heating Degree Days 36    
Moisture  
Dew Point 27 °F    
Average Humidity 87    
Maximum Humidity 93    
Minimum Humidity 70    
Precipitation  
Precipitation 0.00 in - - ()
Sea Level Pressure  
Sea Level Pressure 29.97 in    
Wind  
Wind Speed 7 mph (SW)    
Max Wind Speed 14 mph    
Max Gust Speed 22 mph    
Visibility 7 miles    
Events Snow    
Averages and records for this station are not official NWS values.
T = Trace of Precipitation, MM = Missing Value Source: NWS Daily Summary

Daily Weather History Graph

Daily Weather History Graph

Search for Another Location

Airport:

Trip Planner

Search our weather history database for the weather conditions in past years. The results will help you decide how hot, cold, wet, or windy it might be!

Date:

Astronomy

Nov. 26, 2013 Rise Set
Actual Time 7:47 AM EST 5:05 PM EST
Civil Twilight 7:15 AM EST 5:37 PM EST
Nautical Twilight 6:39 AM EST 6:12 PM EST
Astronomical Twilight 6:05 AM EST 6:47 PM EST
Moon 12:37 AM EST (11/26) 1:22 PM EST (11/26)
Length of Visible Light 10h 22m
Length of Day
9h 18m
Last Quarter, 41% of the Moon is Illuminated
Nov 26
Last Quarter
Dec 2
New
Dec 9
First Quarter
Dec 17
Full
Dec 25
Last Quarter

Hourly Weather History & Observations

Time (EST) Temp. Windchill Dew Point Humidity Pressure Visibility Wind Dir Wind Speed Gust Speed Precip Events Conditions
12:15 AM 31.6 °F 26.0 °F 29.3 °F 91% 30.00 in 7.0 mi SSW 5.8 mph - N/A   Overcast
12:34 AM 31.8 °F 27.3 °F 29.3 °F 90% 30.00 in 7.0 mi SSW 4.6 mph - N/A   Overcast
12:55 AM 32.0 °F 25.6 °F 29.3 °F 90% 30.00 in 7.0 mi SW 6.9 mph - N/A   Overcast
1:15 AM 32.0 °F 25.6 °F 29.3 °F 90% 29.99 in 10.0 mi WSW 6.9 mph - N/A   Overcast
1:34 AM 31.8 °F 26.2 °F 28.8 °F 88% 29.99 in 10.0 mi SW 5.8 mph - N/A   Overcast
1:55 AM 31.1 °F 26.4 °F 28.2 °F 89% 29.99 in 10.0 mi SSW 4.6 mph - N/A   Overcast
2:15 AM 31.1 °F 27.7 °F 28.4 °F 90% 29.99 in 10.0 mi South 3.5 mph - N/A   Overcast
2:34 AM 31.1 °F 27.7 °F 29.1 °F 92% 29.99 in 7.0 mi South 3.5 mph - N/A   Overcast
2:55 AM 31.1 °F 27.7 °F 29.1 °F 92% 29.99 in 5.0 mi SSE 3.5 mph - N/A   Overcast
3:15 AM 30.9 °F 26.2 °F 29.1 °F 93% 29.99 in 4.0 mi SSE 4.6 mph - N/A   Overcast
3:34 AM 31.1 °F 25.4 °F 29.3 °F 93% 29.98 in 4.0 mi South 5.8 mph - N/A   Overcast
3:55 AM 31.1 °F 25.4 °F 29.3 °F 93% 29.98 in 5.0 mi South 5.8 mph - N/A   Overcast
4:15 AM 31.1 °F - 29.1 °F 92% 29.99 in 5.0 mi Calm Calm - N/A   Overcast
4:35 AM 31.1 °F 24.5 °F 29.3 °F 93% 30.00 in 7.0 mi South 6.9 mph - N/A   Overcast
4:55 AM 31.1 °F 24.5 °F 28.9 °F 92% 30.00 in 5.0 mi SSW 6.9 mph - N/A   Overcast
5:15 AM 31.1 °F 23.1 °F 29.1 °F 92% 30.00 in 5.0 mi SSW 9.2 mph - N/A   Overcast
5:35 AM 31.1 °F 24.5 °F 29.1 °F 92% 30.00 in 7.0 mi South 6.9 mph - N/A   Overcast
5:55 AM 31.1 °F 24.5 °F 29.1 °F 92% 30.00 in 7.0 mi South 6.9 mph - N/A   Overcast
6:15 AM 31.1 °F 24.5 °F 28.9 °F 92% 30.00 in 7.0 mi South 6.9 mph - N/A   Overcast
6:35 AM 30.9 °F 23.5 °F 28.6 °F 91% 29.99 in 7.0 mi South 8.1 mph - N/A   Overcast
6:55 AM 30.9 °F 24.3 °F 28.4 °F 90% 29.99 in 7.0 mi South 6.9 mph - N/A   Overcast
7:15 AM 30.9 °F 23.5 °F 28.4 °F 90% 29.98 in 7.0 mi South 8.1 mph - N/A   Overcast
7:35 AM 30.9 °F 23.5 °F 28.4 °F 90% 29.98 in 7.0 mi South 8.1 mph - N/A   Overcast
7:55 AM 30.7 °F 23.3 °F 28.4 °F 91% 29.98 in 7.0 mi South 8.1 mph - N/A   Overcast
8:15 AM 30.7 °F 22.6 °F 28.4 °F 91% 29.98 in 7.0 mi SSW 9.2 mph - N/A   Overcast
8:35 AM 30.9 °F 24.3 °F 28.4 °F 90% 29.97 in 5.0 mi SSW 6.9 mph - N/A   Overcast
8:55 AM 30.9 °F 21.7 °F 28.4 °F 90% 29.99 in 5.0 mi SSW 11.5 mph - N/A   Overcast
9:15 AM 30.9 °F 24.3 °F 28.2 °F 90% 29.98 in 7.0 mi SSW 6.9 mph - N/A   Overcast
9:35 AM 31.1 °F 23.7 °F 28.4 °F 90% 29.98 in 5.0 mi SSW 8.1 mph - N/A   Overcast
9:55 AM 31.1 °F 23.7 °F 28.4 °F 90% 29.97 in 5.0 mi SSW 8.1 mph - N/A   Overcast
10:15 AM 31.1 °F 23.7 °F 28.4 °F 90% 29.97 in 7.0 mi SSW 8.1 mph - N/A   Overcast
10:35 AM 31.5 °F 24.2 °F 28.8 °F 90% 29.98 in 7.0 mi SSW 8.1 mph - N/A   Overcast
10:55 AM 31.6 °F 24.4 °F 28.9 °F 90% 29.97 in 7.0 mi SSW 8.1 mph - N/A   Overcast
11:15 AM 31.8 °F 25.4 °F 28.9 °F 89% 29.96 in 7.0 mi South 6.9 mph - N/A   Overcast
11:35 AM 32.0 °F 25.6 °F 29.1 °F 89% 29.96 in 7.0 mi SSW 6.9 mph - N/A   Overcast
11:55 AM 32.0 °F 24.8 °F 29.1 °F 89% 29.96 in 7.0 mi SSW 8.1 mph - N/A   Overcast
12:15 PM 32.0 °F 26.4 °F 29.1 °F 89% 29.95 in 5.0 mi SSW 5.8 mph - N/A   Overcast
12:35 PM 32.0 °F 24.2 °F 29.3 °F 90% 29.96 in 5.0 mi SSW 9.2 mph - N/A   Overcast
12:55 PM 32.0 °F 23.6 °F 29.3 °F 90% 29.96 in 5.0 mi SSW 10.4 mph - N/A Snow Light Snow
1:15 PM 32.2 °F 25.8 °F 29.7 °F 90% 29.95 in 4.0 mi SSW 6.9 mph - N/A Snow Light Snow
1:35 PM 32.4 °F 27.9 °F 30.0 °F 91% 29.93 in 5.0 mi SSW 4.6 mph - N/A Snow Light Snow
1:55 PM 32.5 °F 27.1 °F 30.0 °F 90% 29.93 in 7.0 mi South 5.8 mph - N/A   Overcast
2:15 PM 32.9 °F 27.5 °F 30.2 °F 90% 29.93 in 7.0 mi SSW 5.8 mph - N/A   Overcast
2:35 PM 32.9 °F 26.7 °F 30.4 °F 90% 29.92 in 7.0 mi SSW 6.9 mph - N/A   Overcast
2:55 PM 32.9 °F 26.7 °F 30.0 °F 89% 29.92 in 5.0 mi SW 6.9 mph - N/A Snow Light Snow
3:15 PM 32.7 °F 27.3 °F 29.8 °F 89% 29.91 in 5.0 mi SSW 5.8 mph - N/A Snow Light Snow
3:35 PM 32.5 °F 28.1 °F 29.8 °F 90% 29.91 in 7.0 mi SW 4.6 mph - N/A   Overcast
3:55 PM 32.4 °F 26.9 °F 29.8 °F 90% 29.91 in 5.0 mi SW 5.8 mph - N/A Snow Light Snow
4:15 PM 32.5 °F 27.1 °F 29.8 °F 90% 29.91 in 7.0 mi SW 5.8 mph - N/A   Overcast
4:35 PM 32.4 °F 25.3 °F 29.5 °F 89% 29.92 in 7.0 mi West 8.1 mph - N/A Snow Light Snow
4:55 PM 32.0 °F 24.2 °F 28.0 °F 85% 29.93 in 10.0 mi West 9.2 mph - N/A Snow Light Snow
5:15 PM 31.8 °F 26.2 °F 27.7 °F 85% 29.93 in 7.0 mi West 5.8 mph - N/A Snow Light Snow
5:35 PM 31.5 °F 24.9 °F 27.5 °F 85% 29.93 in 7.0 mi West 6.9 mph - N/A Snow Light Snow
5:55 PM 31.1 °F 21.4 °F 26.6 °F 83% 29.93 in 10.0 mi West 12.7 mph 17.3 mph N/A Snow Light Snow
6:14 PM 30.2 °F 21.9 °F 25.3 °F 82% 29.94 in 4.0 mi NW 9.2 mph 19.6 mph N/A Snow Light Snow
6:35 PM 29.7 °F 20.1 °F 24.4 °F 81% 29.94 in 10.0 mi WNW 11.5 mph 16.1 mph N/A Snow Light Snow
6:55 PM 29.3 °F 21.5 °F 23.7 °F 80% 29.95 in 10.0 mi NW 8.1 mph - N/A   Overcast
7:14 PM 29.1 °F 22.1 °F 23.4 °F 79% 29.96 in 10.0 mi WNW 6.9 mph - N/A   Overcast
7:35 PM 28.6 °F 20.7 °F 22.3 °F 77% 29.97 in 10.0 mi NW 8.1 mph - N/A   Overcast
7:55 PM 28.4 °F 22.2 °F 21.7 °F 76% 29.97 in 10.0 mi NW 5.8 mph - N/A   Overcast
8:15 PM 28.4 °F 21.2 °F 21.4 °F 75% 29.97 in 10.0 mi WNW 6.9 mph - N/A   Overcast
8:35 PM 28.4 °F 19.1 °F 21.2 °F 74% 29.96 in 10.0 mi WNW 10.4 mph 16.1 mph N/A   Overcast
8:55 PM 28.2 °F 20.2 °F 21.6 °F 76% 29.96 in 10.0 mi WNW 8.1 mph - N/A   Overcast
9:14 PM 28.0 °F 21.7 °F 21.4 °F 76% 29.96 in 10.0 mi WNW 5.8 mph - N/A   Overcast
9:35 PM 27.9 °F 19.8 °F 21.6 °F 77% 29.96 in 10.0 mi NW 8.1 mph - N/A   Overcast
9:55 PM 27.9 °F 20.6 °F 21.6 °F 77% 29.96 in 10.0 mi WNW 6.9 mph - N/A   Overcast
10:14 PM 27.9 °F 21.5 °F 21.7 °F 78% 29.97 in 10.0 mi NW 5.8 mph - N/A   Overcast
10:35 PM 27.5 °F 18.6 °F 21.4 °F 78% 29.97 in 10.0 mi NNW 9.2 mph - N/A   Overcast
10:55 PM 27.1 °F 19.7 °F 20.1 °F 75% 29.98 in 10.0 mi NNW 6.9 mph 18.4 mph N/A   Overcast
11:15 PM 26.4 °F 16.6 °F 19.0 °F 74% 29.98 in 10.0 mi NNW 10.4 mph 16.1 mph N/A   Overcast
11:35 PM 25.5 °F 15.5 °F 17.1 °F 70% 29.99 in 10.0 mi NNW 10.4 mph 21.9 mph N/A   Overcast
11:54 PM 24.8 °F 12.9 °F 16.7 °F 71% 29.99 in 10.0 mi NW 13.8 mph 19.6 mph N/A   Overcast